,,Stat6,,Stat2,,Stat8,,Stat9,,Stat10,,Wind1,,Wind1,
time,status,PA1M_AVG,status,PR1M_SUM,status,RH1M_AVG,status,SR1M_AVG,status,TA1M_AVG,status,W1dAve1m,status,W1sAve1m,
2007-07-23, 00:00:00,VALID,917.548,VALID,0,VALID,100,VALID,-0.0169808,VALID,19.1106,VALID,20,VALID,2.09443,
2007-07-23, 00:01:00,VALID,917.496,VALID,0.2,VALID,100,VALID,-0.0169808,VALID,19.0458,VALID,352,VALID,2.95695,
2007-07-23, 00:02:00,VALID,917.523,VALID,0,VALID,100,VALID,0,VALID,19.0201,VALID,355,VALID,0.97247,
2007-07-23, 00:03:00,VALID,917.533,VALID,0,VALID,100,VALID,0,VALID,19.0363,VALID,338,VALID,0.927269,
2007-07-23, 00:04:00,VALID,917.539,VALID,0,VALID,100,VALID,-0.0169808,VALID,19.0293,VALID,25,VALID,1.7349,
2007-07-23, 00:05:00,VALID,917.529,VALID,0,VALID,100,VALID,0,VALID,19.0523,VALID,349,VALID,1.37046,
2007-07-23, 00:06:00,VALID,917.527,VALID,0,VALID,100,VALID,0.0169808,VALID,19.0393,VALID,17,VALID,1.60992,
2007-07-23, 00:07:00,VALID,917.532,VALID,0,VALID,100,VALID,0,VALID,19.0293,VALID,16,VALID,0.430831,
2007-07-23, 00:08:00,VALID,917.543,VALID,0,VALID,100,VALID,0.0169808,VALID,19.0265,VALID,19,VALID,0.749809,
2007-07-23, 00:09:00,VALID,917.547,VALID,0,VALID,100,VALID,-0.0339617,VALID,19.0303,VALID,330,VALID,1.20789,
2007-07-23, 00:10:00,VALID,917.524,VALID,0,VALID,100,VALID,0,VALID,19.0295,VALID,33,VALID,1.87336,
2007-07-23, 00:11:00,VALID,917.536,VALID,0,VALID,100,VALID,0,VALID,19.0231,VALID,40,VALID,2.19271,
2007-07-23, 00:12:00,VALID,917.538,VALID,0,VALID,100,VALID,0,VALID,19.0196,VALID,37,VALID,1.4415,
2007-07-23, 00:13:00,VALID,917.571,VALID,0,VALID,100,VALID,-0.0339617,VALID,19.0168,VALID,281,VALID,0.945703,
2007-07-23, 00:14:00,VALID,917.565,VALID,0,VALID,100,VALID,-0.0169808,VALID,18.9679,VALID,313,VALID,1.14789,
2007-07-23, 00:15:00,VALID,917.537,VALID,0,VALID,100,VALID,-0.0169808,VALID,18.9589,VALID,77,VALID,1.46378,
2007-07-23, 00:16:00,VALID,917.523,VALID,0,VALID,100,VALID,-0.0169808,VALID,18.9385,VALID,41,VALID,1.67111,
2007-07-23, 00:17:00,VALID,917.528,VALID,0,VALID,100,VALID,0.0169808,VALID,18.9515,VALID,9,VALID,0.755087,
2007-07-23, 00:18:00,VALID,917.507,VALID,0.2,VALID,100,VALID,0,VALID,18.9579,VALID,57,VALID,1.36537,
2007-07-23, 00:19:00,VALID,917.526,VALID,0,VALID,100,VALID,0,VALID,18.9517,VALID,254,VALID,1.43332,
2007-07-23, 00:20:00,VALID,917.516,VALID,0,VALID,100,VALID,-0.0169808,VALID,18.9028,VALID,162,VALID,1.0545,
2007-07-23, 00:21:00,VALID,917.498,VALID,0,VALID,100,VALID,0,VALID,18.9257,VALID,14,VALID,1.52493,
2007-07-23, 00:22:00,VALID,917.484,VALID,0,VALID,100,VALID,-0.0169808,VALID,18.9357,VALID,27,VALID,1.12427,
2007-07-23, 00:23:00,VALID,917.472,VALID,0.2,VALID,100,VALID,0,VALID,18.9193,VALID,43,VALID,1.27525,
2007-07-23, 00:24:00,VALID,917.462,VALID,0,VALID,100,VALID,0,VALID,18.8898,VALID,92,VALID,1.14732,
2007-07-23, 00:25:00,VALID,917.479,VALID,0,VALID,100,VALID,-0.0169808,VALID,18.9063,VALID,31,VALID,1.74238,
2007-07-23, 00:26:00,VALID,917.466,VALID,0,VALID,100,VALID,-0.0169808,VALID,18.9295,VALID,30,VALID,1.504,
2007-07-23, 00:27:00,VALID,917.446,VALID,0,VALID,100,VALID,0,VALID,18.8903,VALID,11,VALID,2.03746,
2007-07-23, 00:28:00,VALID,917.447,VALID,0,VALID,100,VALID,-0.0169808,VALID,18.8771,VALID,22,VALID,1.62991,
2007-07-23, 00:29:00,VALID,917.447,VALID,0,VALID,100,VALID,0,VALID,18.8676,VALID,24,VALID,1.6908,
2007-07-23, 00:30:00,VALID,917.461,VALID,0.2,VALID,100,VALID,0.0169808,VALID,18.8736,VALID,30,VALID,1.33896,
2007-07-23, 00:31:00,VALID,917.451,VALID,0,VALID,100,VALID,0,VALID,18.8739,VALID,17,VALID,2.06975,
2007-07-23, 00:32:00,VALID,917.438,VALID,0,VALID,100,VALID,-0.0169808,VALID,18.8382,VALID,14,VALID,1.67624,
2007-07-23, 00:33:00,VALID,917.424,VALID,0,VALID,100,VALID,0,VALID,18.8611,VALID,34,VALID,2.42276,
2007-07-23, 00:34:00,VALID,917.385,VALID,0,VALID,100,VALID,0,VALID,18.8414,VALID,35,VALID,2.65988,
2007-07-23, 00:35:00,VALID,917.381,VALID,0.2,VALID,100,VALID,0,VALID,18.822,VALID,22,VALID,2.30007,
2007-07-23, 00:36:00,VALID,917.37,VALID,0,VALID,100,VALID,-0.0339617,VALID,18.8025,VALID,17,VALID,1.38335,
2007-07-23, 00:37:00,VALID,917.353,VALID,0,VALID,100,VALID,0,VALID,18.7828,VALID,21,VALID,1.70164,
2007-07-23, 00:38:00,VALID,917.338,VALID,0,VALID,100,VALID,-0.0169808,VALID,18.7738,VALID,34,VALID,1.54855,
2007-07-23, 00:39:00,VALID,917.334,VALID,0,VALID,100,VALID,0.0169808,VALID,18.7895,VALID,34,VALID,1.74333,
2007-07-23, 00:40:00,VALID,917.328,VALID,0,VALID,100,VALID,0,VALID,18.8023,VALID,29,VALID,1.98512,
2007-07-23, 00:41:00,VALID,917.309,VALID,0,VALID,100,VALID,-0.0339617,VALID,18.8057,VALID,23,VALID,1.41113,
2007-07-23, 00:42:00,VALID,917.29,VALID,0,VALID,100,VALID,0,VALID,18.7865,VALID,31,VALID,2.37482,
2007-07-23, 00:43:00,VALID,917.265,VALID,0.2,VALID,100,VALID,0,VALID,18.7833,VALID,29,VALID,2.55487,
2007-07-23, 00:44:00,VALID,917.249,VALID,0,VALID,100,VALID,-0.0339617,VALID,18.7803,VALID,6,VALID,0.931504,
2007-07-23, 00:45:00,VALID,917.241,VALID,0,VALID,100,VALID,0,VALID,18.7668,VALID,18,VALID,2.07972,
2007-07-23, 00:46:00,VALID,917.226,VALID,0.2,VALID,100,VALID,0,VALID,18.7474,VALID,25,VALID,2.20579,
2007-07-23, 00:47:00,VALID,917.254,VALID,0.2,VALID,100,VALID,0.0169808,VALID,18.7441,VALID,352,VALID,1.69769,
2007-07-23, 00:48:00,VALID,917.22,VALID,0,VALID,100,VALID,-0.0169808,VALID,18.7247,VALID,21,VALID,1.96802,
2007-07-23, 00:49:00,VALID,917.203,VALID,0.2,VALID,100,VALID,0,VALID,18.7179,VALID,14,VALID,2.13523,
2007-07-23, 00:50:00,VALID,917.184,VALID,0,VALID,100,VALID,0,VALID,18.7244,VALID,345,VALID,2.22514,
2007-07-23, 00:51:00,VALID,917.174,VALID,0,VALID,100,VALID,0.0339617,VALID,18.6922,VALID,352,VALID,2.02024,
2007-07-23, 00:52:00,VALID,917.159,VALID,0.2,VALID,100,VALID,0,VALID,18.7047,VALID,20,VALID,1.75686,
2007-07-23, 00:53:00,VALID,917.135,VALID,0,VALID,100,VALID,0.0169808,VALID,18.7177,VALID,25,VALID,2.38899,
2007-07-23, 00:54:00,VALID,917.134,VALID,0,VALID,100,VALID,0.0339617,VALID,18.7402,VALID,35,VALID,2.35547,
2007-07-23, 00:55:00,VALID,917.113,VALID,0.2,VALID,100,VALID,0,VALID,18.7603,VALID,32,VALID,2.31072,
2007-07-23, 00:56:00,VALID,917.098,VALID,0,VALID,100,VALID,0,VALID,18.7569,VALID,33,VALID,2.76277,
2007-07-23, 00:57:00,VALID,917.105,VALID,0,VALID,100,VALID,0.0169808,VALID,18.7534,VALID,30,VALID,2.58203,
2007-07-23, 00:58:00,VALID,917.109,VALID,0,VALID,100,VALID,0,VALID,18.7304,VALID,18,VALID,2.08727,
2007-07-23, 00:59:00,VALID,917.097,VALID,0.2,VALID,100,VALID,0,VALID,18.7149,VALID,16,VALID,1.64808,
2007-07-23, 01:00:00,VALID,917.079,VALID,0,VALID,100,VALID,-0.101885,VALID,18.7291,VALID,21,VALID,1.725,
2007-07-23, 01:01:00,VALID,917.077,VALID,0,VALID,100,VALID,-0.101885,VALID,18.7221,VALID,33,VALID,2.15625,
2007-07-23, 01:02:00,VALID,917.06,VALID,0.2,VALID,100,VALID,-0.0679233,VALID,18.7219,VALID,22,VALID,2.00534,
2007-07-23, 01:03:00,VALID,917.047,VALID,0,VALID,100,VALID,-0.0169808,VALID,18.7119,VALID,17,VALID,1.74275,
2007-07-23, 01:04:00,VALID,917.037,VALID,0,VALID,100,VALID,-0.101885,VALID,18.6827,VALID,16,VALID,2.28398,
2007-07-23, 01:05:00,VALID,917.024,VALID,0.2,VALID,100,VALID,-0.0849042,VALID,18.6832,VALID,359,VALID,1.58434,
2007-07-23, 01:06:00,VALID,917.01,VALID,0.2,VALID,100,VALID,-0.101885,VALID,18.6962,VALID,27,VALID,2.30393,
2007-07-23, 01:07:00,VALID,916.997,VALID,0,VALID,100,VALID,-0.0339617,VALID,18.6897,VALID,8,VALID,1.68073,
2007-07-23, 01:08:00,VALID,916.996,VALID,0,VALID,100,VALID,-0.0849042,VALID,18.6672,VALID,24,VALID,1.63154,
2007-07-23, 01:09:00,VALID,916.988,VALID,0.2,VALID,100,VALID,-0.0849042,VALID,18.6929,VALID,4,VALID,0.966206,
2007-07-23, 01:10:00,VALID,916.974,VALID,0.2,VALID,100,VALID,-0.0509425,VALID,18.6827,VALID,29,VALID,1.373,
2007-07-23, 01:11:00,VALID,916.963,VALID,0.2,VALID,100,VALID,-0.0849042,VALID,18.7096,VALID,27,VALID,1.62954,
2007-07-23, 01:12:00,VALID,916.949,VALID,0.2,VALID,100,VALID,-0.0679233,VALID,18.6932,VALID,34,VALID,1.79815,
2007-07-23, 01:13:00,VALID,916.943,VALID,0.2,VALID,100,VALID,-0.0679233,VALID,18.7054,VALID,30,VALID,1.70015,
2007-07-23, 01:14:00,VALID,916.924,VALID,0.2,VALID,100,VALID,-0.0849042,VALID,18.6894,VALID,12,VALID,2.24512,
2007-07-23, 01:15:00,VALID,916.929,VALID,0,VALID,100,VALID,-0.0679233,VALID,18.6872,VALID,4,VALID,1.56936,
2007-07-23, 01:16:00,VALID,916.933,VALID,0.2,VALID,100,VALID,-0.0679233,VALID,18.6897,VALID,21,VALID,0.731715,
2007-07-23, 01:17:00,VALID,916.919,VALID,0.2,VALID,100,VALID,-0.101885,VALID,18.6934,VALID,23,VALID,0.993253,
2007-07-23, 01:18:00,VALID,916.9,VALID,0,VALID,100,VALID,-0.0679233,VALID,18.6864,VALID,337,VALID,1.15916,
2007-07-23, 01:19:00,VALID,916.89,VALID,0.2,VALID,100,VALID,-0.0849042,VALID,18.7126,VALID,37,VALID,1.20145,
2007-07-23, 01:20:00,VALID,916.886,VALID,0.2,VALID,100,VALID,-0.0679233,VALID,18.6964,VALID,2,VALID,0.717152,
2007-07-23, 01:21:00,VALID,916.895,VALID,0,VALID,100,VALID,-0.0849042,VALID,18.6769,VALID,360,VALID,0.50465,
2007-07-23, 01:22:00,VALID,916.873,VALID,0.2,VALID,100,VALID,-0.0679233,VALID,18.6867,VALID,33,VALID,1.02172,
2007-07-23, 01:23:00,VALID,916.89,VALID,0,VALID,100,VALID,-0.101885,VALID,18.7091,VALID,33,VALID,1.41871,
2007-07-23, 01:24:00,VALID,916.877,VALID,0.2,VALID,100,VALID,-0.101885,VALID,18.7191,VALID,15,VALID,1.6452,
2007-07-23, 01:25:00,VALID,916.857,VALID,0.2,VALID,100,VALID,-0.0849042,VALID,18.7161,VALID,34,VALID,1.85781,
2007-07-23, 01:26:00,VALID,916.84,VALID,0.2,VALID,100,VALID,-0.101885,VALID,18.7159,VALID,26,VALID,2.10352,
2007-07-23, 01:27:00,VALID,916.826,VALID,0.2,VALID,100,VALID,-0.0679233,VALID,18.7027,VALID,20,VALID,1.36797,
2007-07-23, 01:28:00,VALID,916.824,VALID,0.2,VALID,100,VALID,-0.0849042,VALID,18.6864,VALID,7,VALID,1.09821,
2007-07-23, 01:29:00,VALID,916.794,VALID,0,VALID,100,VALID,-0.0849042,VALID,18.6897,VALID,28,VALID,1.43899,
2007-07-23, 01:30:00,VALID,916.771,VALID,0.2,VALID,100,VALID,-0.0339617,VALID,18.7124,VALID,21,VALID,1.66425,
2007-07-23, 01:31:00,VALID,916.769,VALID,0.2,VALID,100,VALID,-0.0509425,VALID,18.7096,VALID,24,VALID,1.57515,
2007-07-23, 01:32:00,VALID,916.766,VALID,0.2,VALID,100,VALID,-0.0509425,VALID,18.6925,VALID,359,VALID,1.35447,
2007-07-23, 01:33:00,VALID,916.744,VALID,0.2,VALID,100,VALID,-0.0849042,VALID,18.6765,VALID,14,VALID,1.49758,
2007-07-23, 01:34:00,VALID,916.733,VALID,0.6,VALID,100,VALID,-0.0849042,VALID,18.6994,VALID,20,VALID,1.49014,
2007-07-23, 01:35:00,VALID,916.706,VALID,0.6,VALID,100,VALID,-0.118866,VALID,18.7159,VALID,27,VALID,1.97479,
2007-07-23, 01:36:00,VALID,916.665,VALID,0.4,VALID,100,VALID,-0.0339617,VALID,18.6598,VALID,19,VALID,2.39203,
2007-07-23, 01:37:00,VALID,916.672,VALID,0.2,VALID,100,VALID,-0.0509425,VALID,18.6209,VALID,15,VALID,1.84611,
2007-07-23, 01:38:00,VALID,916.666,VALID,0.2,VALID,100,VALID,-0.0169808,VALID,18.6209,VALID,25,VALID,1.86128,
2007-07-23, 01:39:00,VALID,916.677,VALID,0.4,VALID,100,VALID,-0.0339617,VALID,18.6047,VALID,2,VALID,1.9881,
2007-07-23, 01:40:00,VALID,916.667,VALID,0.2,VALID,100,VALID,-0.101885,VALID,18.6216,VALID,25,VALID,1.44459,
2007-07-23, 01:41:00,VALID,916.664,VALID,0.2,VALID,100,VALID,-0.0679233,VALID,18.6376,VALID,20,VALID,1.96418,
2007-07-23, 01:42:00,VALID,916.667,VALID,0.2,VALID,100,VALID,-0.0339617,VALID,18.6475,VALID,28,VALID,1.44382,
2007-07-23, 01:43:00,VALID,916.669,VALID,0,VALID,100,VALID,-0.0169808,VALID,18.6341,VALID,12,VALID,1.69567,
2007-07-23, 01:44:00,VALID,916.633,VALID,0.2,VALID,100,VALID,-0.0679233,VALID,18.6047,VALID,360,VALID,1.75941,
2007-07-23, 01:45:00,VALID,916.628,VALID,0.2,VALID,100,VALID,-0.101885,VALID,18.6149,VALID,32,VALID,1.97637,
2007-07-23, 01:46:00,VALID,916.635,VALID,0,VALID,100,VALID,-0.0509425,VALID,18.6475,VALID,32,VALID,1.57813,
2007-07-23, 01:47:00,VALID,916.623,VALID,0,VALID,100,VALID,-0.0679233,VALID,18.6376,VALID,356,VALID,1.18731,
2007-07-23, 01:48:00,VALID,916.605,VALID,0.2,VALID,100,VALID,-0.0339617,VALID,18.6311,VALID,33,VALID,0.920573,
2007-07-23, 01:49:00,VALID,916.595,VALID,0,VALID,100,VALID,-0.0849042,VALID,18.6505,VALID,26,VALID,1.2441,
2007-07-23, 01:50:00,VALID,916.576,VALID,0.2,VALID,100,VALID,-0.0509425,VALID,18.6341,VALID,11,VALID,0.463942,
2007-07-23, 01:51:00,VALID,916.577,VALID,0,VALID,100,VALID,-0.0679233,VALID,18.6501,VALID,7,VALID,0.0118963,
2007-07-23, 01:52:00,VALID,916.565,VALID,0.2,VALID,100,VALID,-0.0849042,VALID,18.6695,VALID,15,VALID,0.814317,
2007-07-23, 01:53:00,VALID,916.563,VALID,0,VALID,100,VALID,-0.101885,VALID,18.6992,VALID,32,VALID,1.76674,
2007-07-23, 01:54:00,VALID,916.557,VALID,0,VALID,100,VALID,-0.0509425,VALID,18.6989,VALID,27,VALID,1.35508,
2007-07-23, 01:55:00,VALID,916.534,VALID,0.2,VALID,100,VALID,-0.0679233,VALID,18.6894,VALID,32,VALID,1.51225,
2007-07-23, 01:56:00,VALID,916.499,VALID,0,VALID,100,VALID,-0.0849042,VALID,18.6894,VALID,39,VALID,1.11033,
2007-07-23, 01:57:00,VALID,916.501,VALID,0.2,VALID,100,VALID,-0.0509425,VALID,18.6922,VALID,39,VALID,1.51406,
2007-07-23, 01:58:00,VALID,916.507,VALID,0,VALID,100,VALID,-0.0679233,VALID,18.7119,VALID,29,VALID,1.20566,
2007-07-23, 01:59:00,VALID,916.51,VALID,0,VALID,100,VALID,-0.0339617,VALID,18.6925,VALID,19,VALID,1.08794,
2007-07-23, 02:00:00,VALID,916.481,VALID,0.2,VALID,100,VALID,-0.0509425,VALID,18.667,VALID,5,VALID,1.74711,
2007-07-23, 02:01:00,VALID,916.482,VALID,0,VALID,100,VALID,-0.0509425,VALID,18.6468,VALID,8,VALID,1.68824,
2007-07-23, 02:02:00,VALID,916.475,VALID,0.2,VALID,100,VALID,-0.0679233,VALID,18.6376,VALID,346,VALID,1.16951,
2007-07-23, 02:03:00,VALID,916.48,VALID,0,VALID,100,VALID,-0.0509425,VALID,18.6378,VALID,337,VALID,0.730841,
2007-07-23, 02:04:00,VALID,916.461,VALID,0.2,VALID,100,VALID,-0.0509425,VALID,18.6535,VALID,28,VALID,1.26326,
2007-07-23, 02:05:00,VALID,916.456,VALID,0.2,VALID,100,VALID,-0.0849042,VALID,18.6735,VALID,26,VALID,1.35547,
2007-07-23, 02:06:00,VALID,916.444,VALID,0,VALID,100,VALID,-0.0849042,VALID,18.673,VALID,39,VALID,0.931424,
2007-07-23, 02:07:00,VALID,916.431,VALID,0,VALID,100,VALID,-0.101885,VALID,18.6997,VALID,39,VALID,0.966704,
2007-07-23, 02:08:00,VALID,916.428,VALID,0.2,VALID,100,VALID,-0.0509425,VALID,18.7122,VALID,33,VALID,1.72166,
2007-07-23, 02:09:00,VALID,916.42,VALID,0.2,VALID,100,VALID,-0.0849042,VALID,18.7184,VALID,37,VALID,1.58031,
2007-07-23, 02:10:00,VALID,916.421,VALID,0,VALID,100,VALID,-0.0849042,VALID,18.7349,VALID,38,VALID,1.54111,
2007-07-23, 02:11:00,VALID,916.425,VALID,0.2,VALID,100,VALID,-0.0509425,VALID,18.7543,VALID,33,VALID,1.75972,
2007-07-23, 02:12:00,VALID,916.413,VALID,0,VALID,100,VALID,-0.0339617,VALID,18.7478,VALID,23,VALID,1.62118,
2007-07-23, 02:13:00,VALID,916.421,VALID,0.2,VALID,100,VALID,-0.0339617,VALID,18.7376,VALID,20,VALID,1.08194,
2007-07-23, 02:14:00,VALID,916.407,VALID,0,VALID,100,VALID,-0.0849042,VALID,18.7421,VALID,43,VALID,1.65495,
2007-07-23, 02:15:00,VALID,916.386,VALID,0.2,VALID,100,VALID,-0.0679233,VALID,18.7284,VALID,23,VALID,2.15316,
2007-07-23, 02:16:00,VALID,916.379,VALID,0,VALID,100,VALID,-0.0509425,VALID,18.7119,VALID,19,VALID,0.683771,
2007-07-23, 02:17:00,VALID,916.358,VALID,0.2,VALID,100,VALID,-0.0679233,VALID,18.7284,VALID,38,VALID,0.973722,
2007-07-23, 02:18:00,VALID,916.351,VALID,0.2,VALID,100,VALID,-0.0679233,VALID,18.7409,VALID,35,VALID,1.5536,
2007-07-23, 02:19:00,VALID,916.348,VALID,0,VALID,100,VALID,-0.0679233,VALID,18.7478,VALID,360,VALID,1.18205,
2007-07-23, 02:20:00,VALID,916.326,VALID,0.2,VALID,100,VALID,-0.0339617,VALID,18.7247,VALID,41,VALID,1.64444,
2007-07-23, 02:21:00,VALID,916.327,VALID,0,VALID,100,VALID,-0.0679233,VALID,18.7184,VALID,26,VALID,1.73403,
2007-07-23, 02:22:00,VALID,916.316,VALID,0.2,VALID,100,VALID,-0.0679233,VALID,18.7152,VALID,14,VALID,1.53427,
2007-07-23, 02:23:00,VALID,916.316,VALID,0.2,VALID,100,VALID,-0.0339617,VALID,18.7119,VALID,29,VALID,1.01935,
2007-07-23, 02:24:00,VALID,916.296,VALID,0,VALID,100,VALID,-0.0679233,VALID,18.7117,VALID,19,VALID,1.81232,
2007-07-23, 02:25:00,VALID,916.284,VALID,0.2,VALID,100,VALID,-0.0849042,VALID,18.6962,VALID,34,VALID,2.13517,
2007-07-23, 02:26:00,VALID,916.283,VALID,0,VALID,100,VALID,-0.0679233,VALID,18.7022,VALID,30,VALID,1.34141,
2007-07-23, 02:27:00,VALID,916.269,VALID,0.2,VALID,100,VALID,-0.0169808,VALID,18.6989,VALID,7,VALID,1.52915,
2007-07-23, 02:28:00,VALID,916.275,VALID,0,VALID,100,VALID,-0.101885,VALID,18.6864,VALID,25,VALID,1.9375,
2007-07-23, 02:29:00,VALID,916.26,VALID,0.2,VALID,100,VALID,-0.0509425,VALID,18.686,VALID,22,VALID,1.45222,
2007-07-23, 02:30:00,VALID,916.261,VALID,0,VALID,100,VALID,-0.0849042,VALID,18.683,VALID,37,VALID,1.65807,
2007-07-23, 02:31:00,VALID,916.259,VALID,0.2,VALID,100,VALID,-0.0339617,VALID,18.6987,VALID,27,VALID,1.70028,
2007-07-23, 02:32:00,VALID,916.242,VALID,0,VALID,100,VALID,-0.0339617,VALID,18.6987,VALID,21,VALID,1.11534,
2007-07-23, 02:33:00,VALID,916.235,VALID,0,VALID,100,VALID,-0.0169808,VALID,18.6795,VALID,34,VALID,1.71309,
2007-07-23, 02:34:00,VALID,916.227,VALID,0.2,VALID,100,VALID,-0.0509425,VALID,18.7022,VALID,17,VALID,1.06343,
2007-07-23, 02:35:00,VALID,916.218,VALID,0,VALID,100,VALID,-0.0169808,VALID,18.7226,VALID,22,VALID,1.03872,
2007-07-23, 02:36:00,VALID,916.226,VALID,0.2,VALID,100,VALID,-0.0679233,VALID,18.6827,VALID,17,VALID,1.77725,
2007-07-23, 02:37:00,VALID,916.234,VALID,0.2,VALID,100,VALID,0,VALID,18.6925,VALID,33,VALID,0.84375,
2007-07-23, 02:38:00,VALID,916.214,VALID,0,VALID,100,VALID,-0.0509425,VALID,18.6857,VALID,17,VALID,1.18586,
2007-07-23, 02:39:00,VALID,916.194,VALID,0.2,VALID,100,VALID,-0.0339617,VALID,18.667,VALID,30,VALID,1.3142,
2007-07-23, 02:40:00,VALID,916.19,VALID,0,VALID,100,VALID,0,VALID,18.673,VALID,38,VALID,1.28196,
2007-07-23, 02:41:00,VALID,916.178,VALID,0.2,VALID,100,VALID,-0.0169808,VALID,18.686,VALID,31,VALID,1.59546,
2007-07-23, 02:42:00,VALID,916.179,VALID,0,VALID,100,VALID,-0.0679233,VALID,18.6698,VALID,29,VALID,1.24364,
2007-07-23, 02:43:00,VALID,916.173,VALID,0,VALID,100,VALID,-0.0169808,VALID,18.673,VALID,18,VALID,1.28725,
2007-07-23, 02:44:00,VALID,916.149,VALID,0.2,VALID,100,VALID,-0.0169808,VALID,18.6501,VALID,27,VALID,1.66424,
2007-07-23, 02:45:00,VALID,916.171,VALID,0,VALID,100,VALID,-0.0509425,VALID,18.6503,VALID,15,VALID,1.48958,
2007-07-23, 02:46:00,VALID,916.152,VALID,0,VALID,100,VALID,-0.0169808,VALID,18.6438,VALID,33,VALID,1.05451,
2007-07-23, 02:47:00,VALID,916.145,VALID,0.2,VALID,100,VALID,-0.0339617,VALID,18.6533,VALID,33,VALID,1.51385,
2007-07-23, 02:48:00,VALID,916.149,VALID,0,VALID,100,VALID,-0.0169808,VALID,18.6732,VALID,27,VALID,1.5107,
2007-07-23, 02:49:00,VALID,916.128,VALID,0,VALID,100,VALID,-0.0169808,VALID,18.6665,VALID,8,VALID,1.58507,
2007-07-23, 02:50:00,VALID,916.144,VALID,0.2,VALID,100,VALID,-0.0849042,VALID,18.6575,VALID,19,VALID,1.06747,
2007-07-23, 02:51:00,VALID,916.145,VALID,0,VALID,100,VALID,-0.0169808,VALID,18.663,VALID,31,VALID,0.929501,
2007-07-23, 02:52:00,VALID,916.128,VALID,0,VALID,100,VALID,-0.0509425,VALID,18.6698,VALID,40,VALID,1.7017,
2007-07-23, 02:53:00,VALID,916.115,VALID,0,VALID,100,VALID,-0.0849042,VALID,18.6962,VALID,35,VALID,1.51823,
2007-07-23, 02:54:00,VALID,916.131,VALID,0.2,VALID,100,VALID,-0.0849042,VALID,18.6992,VALID,30,VALID,1.12609,
2007-07-23, 02:55:00,VALID,916.134,VALID,0,VALID,100,VALID,-0.0509425,VALID,18.6792,VALID,21,VALID,1.15739,
2007-07-23, 02:56:00,VALID,916.137,VALID,0,VALID,100,VALID,-0.0849042,VALID,18.66,VALID,16,VALID,0.925595,
2007-07-23, 02:57:00,VALID,916.13,VALID,0,VALID,100,VALID,-0.0509425,VALID,18.6501,VALID,38,VALID,1.43945,
2007-07-23, 02:58:00,VALID,916.135,VALID,0.2,VALID,100,VALID,-0.0509425,VALID,18.6765,VALID,34,VALID,1.53675,
2007-07-23, 02:59:00,VALID,916.138,VALID,0,VALID,100,VALID,-0.0509425,VALID,18.6767,VALID,22,VALID,1.45455,
2007-07-23, 03:00:00,VALID,916.125,VALID,0,VALID,100,VALID,-0.0849042,VALID,18.6503,VALID,22,VALID,1.28944,
2007-07-23, 03:01:00,VALID,916.125,VALID,0,VALID,100,VALID,-0.0849042,VALID,18.6508,VALID,23,VALID,1.52969,
2007-07-23, 03:02:00,VALID,916.111,VALID,0,VALID,100,VALID,-0.101885,VALID,18.638,VALID,9,VALID,1.44957,
2007-07-23, 03:03:00,VALID,916.112,VALID,0,VALID,100,VALID,-0.0509425,VALID,18.6443,VALID,9,VALID,1.13572,
2007-07-23, 03:04:00,VALID,916.115,VALID,0,VALID,100,VALID,-0.0339617,VALID,18.6373,VALID,30,VALID,1.29233,
2007-07-23, 03:05:00,VALID,916.123,VALID,0.2,VALID,100,VALID,-0.0339617,VALID,18.6575,VALID,31,VALID,1.0506,
2007-07-23, 03:06:00,VALID,916.111,VALID,0,VALID,100,VALID,-0.0509425,VALID,18.6408,VALID,20,VALID,1.98038,
2007-07-23, 03:07:00,VALID,916.114,VALID,0,VALID,100,VALID,-0.0509425,VALID,18.6274,VALID,33,VALID,1.40968,
2007-07-23, 03:08:00,VALID,916.111,VALID,0,VALID,100,VALID,-0.0169808,VALID,18.6373,VALID,358,VALID,2.25923,
2007-07-23, 03:09:00,VALID,916.098,VALID,0,VALID,100,VALID,-0.0679233,VALID,18.6183,VALID,16,VALID,2.49582,
2007-07-23, 03:10:00,VALID,916.096,VALID,0,VALID,100,VALID,-0.0339617,VALID,18.6114,VALID,26,VALID,1.65825,
2007-07-23, 03:11:00,VALID,916.098,VALID,0,VALID,100,VALID,-0.0339617,VALID,18.6081,VALID,28,VALID,1.60813,
2007-07-23, 03:12:00,VALID,916.082,VALID,0,VALID,100,VALID,-0.0169808,VALID,18.6276,VALID,27,VALID,1.50446,
2007-07-23, 03:13:00,VALID,916.073,VALID,0.2,VALID,100,VALID,-0.0169808,VALID,18.6373,VALID,21,VALID,1.94983,
2007-07-23, 03:14:00,VALID,916.067,VALID,0,VALID,100,VALID,-0.0509425,VALID,18.6253,VALID,21,VALID,1.53739,
2007-07-23, 03:15:00,VALID,916.056,VALID,0,VALID,100,VALID,-0.0339617,VALID,18.6149,VALID,31,VALID,2.09394,
2007-07-23, 03:16:00,VALID,916.06,VALID,0,VALID,100,VALID,-0.0169808,VALID,18.6049,VALID,9,VALID,1.63765,
2007-07-23, 03:17:00,VALID,916.064,VALID,0,VALID,100,VALID,-0.0339617,VALID,18.6181,VALID,33,VALID,2.21596,
2007-07-23, 03:18:00,VALID,916.078,VALID,0,VALID,100,VALID,-0.0509425,VALID,18.6276,VALID,24,VALID,1.9907,
2007-07-23, 03:19:00,VALID,916.04,VALID,0,VALID,100,VALID,-0.0339617,VALID,18.6081,VALID,2,VALID,2.12109,
2007-07-23, 03:20:00,VALID,916.033,VALID,0,VALID,100,VALID,0,VALID,18.6047,VALID,27,VALID,1.30646,
2007-07-23, 03:21:00,VALID,916.038,VALID,0,VALID,100,VALID,-0.0169808,VALID,18.6144,VALID,37,VALID,1.42429,
2007-07-23, 03:22:00,VALID,916.038,VALID,0,VALID,100,VALID,-0.0339617,VALID,18.6341,VALID,34,VALID,1.66044,
2007-07-23, 03:23:00,VALID,916.013,VALID,0,VALID,100,VALID,-0.0339617,VALID,18.6241,VALID,11,VALID,1.63953,
2007-07-23, 03:24:00,VALID,915.998,VALID,0,VALID,100,VALID,-0.0339617,VALID,18.6044,VALID,34,VALID,2.57698,
2007-07-23, 03:25:00,VALID,916.022,VALID,0.2,VALID,100,VALID,-0.0169808,VALID,18.6114,VALID,21,VALID,0.818266,
2007-07-23, 03:26:00,VALID,915.999,VALID,0,VALID,100,VALID,-0.0169808,VALID,18.6179,VALID,30,VALID,1.65104,
2007-07-23, 03:27:00,VALID,915.966,VALID,0,VALID,100,VALID,-0.0169808,VALID,18.6047,VALID,29,VALID,1.72514,
2007-07-23, 03:28:00,VALID,915.996,VALID,0,VALID,100,VALID,0,VALID,18.6049,VALID,33,VALID,0.893864,
2007-07-23, 03:29:00,VALID,915.995,VALID,0,VALID,100,VALID,-0.0169808,VALID,18.5887,VALID,360,VALID,1.94207,
2007-07-23, 03:30:00,VALID,915.997,VALID,0,VALID,100,VALID,-0.0849042,VALID,18.5627,VALID,19,VALID,1.18971,
2007-07-23, 03:31:00,VALID,916.002,VALID,0,VALID,100,VALID,-0.0339617,VALID,18.5657,VALID,41,VALID,1.23125,
2007-07-23, 03:32:00,VALID,916.012,VALID,0,VALID,100,VALID,-0.0679233,VALID,18.5982,VALID,46,VALID,0.931895,
2007-07-23, 03:33:00,VALID,915.991,VALID,0,VALID,100,VALID,-0.0339617,VALID,18.5989,VALID,23,VALID,2.37074,
2007-07-23, 03:34:00,VALID,915.99,VALID,0.2,VALID,100,VALID,-0.0849042,VALID,18.5757,VALID,30,VALID,1.99386,
2007-07-23, 03:35:00,VALID,915.974,VALID,0,VALID,100,VALID,-0.0509425,VALID,18.569,VALID,13,VALID,2.26491,
2007-07-23, 03:36:00,VALID,915.983,VALID,0,VALID,100,VALID,-0.0339617,VALID,18.5528,VALID,19,VALID,2.49146,
2007-07-23, 03:37:00,VALID,915.982,VALID,0,VALID,100,VALID,-0.0339617,VALID,18.5627,VALID,37,VALID,2.82184,
2007-07-23, 03:38:00,VALID,915.986,VALID,0,VALID,100,VALID,-0.0339617,VALID,18.5657,VALID,18,VALID,2.20027,
2007-07-23, 03:39:00,VALID,916.007,VALID,0,VALID,100,VALID,-0.0509425,VALID,18.5722,VALID,25,VALID,1.8323,
2007-07-23, 03:40:00,VALID,915.986,VALID,0,VALID,100,VALID,-0.0509425,VALID,18.5657,VALID,20,VALID,2.32504,
2007-07-23, 03:41:00,VALID,915.98,VALID,0,VALID,100,VALID,-0.0169808,VALID,18.5595,VALID,24,VALID,1.59635,